Location: �perlecques
(50.8057°N, 2.1521°E)
Time: 14:50:54
(UTC+00:00)

YUBILEINY - Pass Details

Date: 08 April 2023
Orbit: 1478 x 1508 km, 82.5° (Epoch: 01 June)

Event Time Altitude Azimuth Distance (km) Brightness Sun altitude
Rises 22:19:42 0° 348° (NNW) 4,651 ? -28.4°
Reaches altitude 10° 22:22:37 10° 346° (NNW) 3,670 ? -28.6°
Maximum altitude 22:31:23 71° 266° (W) 1,585 ? -29.2°
Enters shadow 22:34:06 48° 200° (SSW) 1,890 ? -29.4°
